Location: ??
(35.1715°N, 139.6450°E)
Time: 09:08:31
(UTC+00:00)

Cosmos 2333 Rocket - Pass Details

Date: 05 August 2024
Orbit: 839 x 863 km, 70.8° (Epoch: 14 September)

Event Time Altitude Azimuth Distance (km) Brightness Sun altitude
Exits shadow 15:57:16 37° 46° (NE) 1,308 3.5 -35.5°
Drops below altitude 10° 16:00:48 10° 30° (NNE) 2,499 5.4 -35.3°
Sets 16:03:18 0° 26° (NNE) 3,442 6.4 -35.1°
